When you browse on this site, cookies collect data to enhance your experience and personalize the content and advertising you see.
Visit our Privacy Policy to learn more. By continuing to use the site, you agree to this use of cookies and data.
  • In Schweiz
  • Länderverzeichnis
  • Für 7 Tage
  • Wassertemperatur
  • Satellitenkarten
  • Wetterkarte
  • Widgets
  • user-avatar
    Anmelden

    Stündliche Wetter Lubango

    Heute, 22 Januar, Dienstag

    Zeit Temperatur Niederschläge Wind Luftdruck Luftfeuchtigkeit
    00:00 +16°C° 0 mm 1 m/S 608 mmHg 90%
    01:00 +16°C° 0 mm 1 m/S 608 mmHg 89%
    02:00 +15°C° 0.5 mm 0 m/S 608 mmHg 89%
    03:00 +15°C° 0.5 mm 0 m/S 608 mmHg 88%
    04:00 +15°C° 0.5 mm 0 m/S 608 mmHg 88%
    05:00 +15°C° 1 mm 0 m/S 608 mmHg 87%
    06:00 +15°C° 1 mm 0 m/S 608 mmHg 87%
    07:00 +18°C° 1 mm 1 m/S 609 mmHg 86%
    08:00 +19°C° 1.3 mm 1 m/S 609 mmHg 81%
    09:00 +21°C° 1.3 mm 1 m/S 610 mmHg 75%
    10:00 +23°C° 1.3 mm 1 m/S 611 mmHg 70%
    11:00 +22°C° 2.2 mm 1 m/S 610 mmHg 71%
    12:00 +22°C° 2.2 mm 1 m/S 610 mmHg 72%
    13:00 +22°C° 2.2 mm 1 m/S 609 mmHg 73%
    14:00 +22°C° 1.9 mm 1 m/S 609 mmHg 74%
    15:00 +22°C° 1.9 mm 1 m/S 608 mmHg 75%
    16:00 +21°C° 1.9 mm 1 m/S 608 mmHg 77%
    17:00 +21°C° 0.3 mm 1 m/S 608 mmHg 80%
    18:00 +20°C° 0.3 mm 1 m/S 608 mmHg 83%
    19:00 +19°C° 0.3 mm 1 m/S 608 mmHg 87%
    20:00 +19°C° 0.5 mm 1 m/S 608 mmHg 87%
    21:00 +18°C° 0.5 mm 1 m/S 608 mmHg 88%
    22:00 +18°C° 0.5 mm 1 m/S 609 mmHg 88%
    23:00 +18°C° 0.4 mm 1 m/S 609 mmHg 89%

    Morgen, 23 Januar, Mittwoch

    Zeit Temperatur Niederschläge Wind Luftdruck Luftfeuchtigkeit
    00:00 +18°C° 0.4 mm 1 m/S 608 mmHg 90%
    01:00 +16°C° 0.4 mm 1 m/S 608 mmHg 91%
    02:00 +16°C° 0.7 mm 1 m/S 608 mmHg 91%
    03:00 +16°C° 0.7 mm 1 m/S 608 mmHg 91%
    04:00 +16°C° 0.7 mm 1 m/S 608 mmHg 92%
    05:00 +16°C° 0.4 mm 1 m/S 608 mmHg 90%
    06:00 +16°C° 0.4 mm 1 m/S 608 mmHg 88%
    07:00 +18°C° 0.4 mm 1 m/S 609 mmHg 87%
    08:00 +20°C° 0.3 mm 1 m/S 609 mmHg 78%
    09:00 +21°C° 0.3 mm 1 m/S 610 mmHg 68%
    10:00 +23°C° 0.3 mm 1 m/S 611 mmHg 59%
    11:00 +25°C° 0 mm 2 m/S 611 mmHg 54%
    12:00 +26°C° 0 mm 2 m/S 611 mmHg 48%
    13:00 +27°C° 0 mm 2 m/S 611 mmHg 43%
    14:00 +26°C° 0.1 mm 2 m/S 610 mmHg 48%
    15:00 +25°C° 0.1 mm 2 m/S 609 mmHg 54%
    16:00 +23°C° 0.1 mm 2 m/S 608 mmHg 59%
    17:00 +21°C° 0.1 mm 2 m/S 608 mmHg 63%
    18:00 +19°C° 0.1 mm 2 m/S 607 mmHg 67%
    19:00 +18°C° 0.1 mm 2 m/S 607 mmHg 71%
    20:00 +17°C° 0 mm 2 m/S 607 mmHg 74%
    21:00 +16°C° 0 mm 1 m/S 608 mmHg 77%
    22:00 +15°C° 0 mm 1 m/S 608 mmHg 80%
    23:00 +15°C° 0 mm 1 m/S 608 mmHg 82%

    übermorgen, 24 Januar, Donnerstag

    Zeit Temperatur Niederschläge Wind Luftdruck Luftfeuchtigkeit
    00:00 +14°C° 0 mm 1 m/S 607 mmHg 84%
    01:00 +14°C° 0 mm 1 m/S 607 mmHg 86%
    02:00 +14°C° 0 mm 1 m/S 607 mmHg 85%
    03:00 +14°C° 0 mm 1 m/S 606 mmHg 84%
    04:00 +14°C° 0 mm 1 m/S 606 mmHg 82%
    05:00 +15°C° 0 mm 1 m/S 607 mmHg 79%
    06:00 +16°C° 0 mm 1 m/S 607 mmHg 75%
    07:00 +16°C° 0 mm 0 m/S 608 mmHg 72%
    08:00 +20°C° 0 mm 1 m/S 609 mmHg 62%
    09:00 +23°C° 0 mm 1 m/S 610 mmHg 52%
    10:00 +26°C° 0 mm 1 m/S 611 mmHg 42%
    11:00 +27°C° 0 mm 1 m/S 611 mmHg 40%
    12:00 +27°C° 0 mm 1 m/S 611 mmHg 37%
    13:00 +28°C° 0 mm 2 m/S 610 mmHg 35%
    14:00 +27°C° 0 mm 2 m/S 609 mmHg 39%
    15:00 +26°C° 0 mm 2 m/S 608 mmHg 44%
    16:00 +24°C° 0 mm 2 m/S 607 mmHg 48%
    17:00 +23°C° 0 mm 2 m/S 607 mmHg 54%
    18:00 +21°C° 0 mm 1 m/S 607 mmHg 59%
    19:00 +20°C° 0 mm 1 m/S 606 mmHg 64%
    20:00 +19°C° 0 mm 1 m/S 607 mmHg 69%
    21:00 +18°C° 0 mm 1 m/S 607 mmHg 73%
    22:00 +15°C° 0 mm 0 m/S 607 mmHg 77%
    23:00 +15°C° 0 mm 0 m/S 607 mmHg 80%

    25 Januar, Freitag

    Zeit Temperatur Niederschläge Wind Luftdruck Luftfeuchtigkeit
    00:00 +16°C° 0 mm 1 m/S 607 mmHg 82%
    01:00 +15°C° 0 mm 1 m/S 606 mmHg 84%
    02:00 +15°C° 0 mm 1 m/S 606 mmHg 83%
    03:00 +15°C° 0 mm 1 m/S 606 mmHg 81%
    04:00 +15°C° 0 mm 0 m/S 606 mmHg 80%
    05:00 +15°C° 0 mm 0 m/S 607 mmHg 78%
    06:00 +18°C° 0 mm 1 m/S 607 mmHg 75%
    07:00 +19°C° 0 mm 1 m/S 608 mmHg 72%
    08:00 +22°C° 0 mm 1 m/S 609 mmHg 62%
    09:00 +24°C° 0 mm 1 m/S 610 mmHg 53%
    10:00 +27°C° 0 mm 2 m/S 611 mmHg 43%
    11:00 +27°C° 0 mm 2 m/S 611 mmHg 41%
    12:00 +28°C° 0 mm 2 m/S 611 mmHg 38%
    13:00 +29°C° 0 mm 2 m/S 610 mmHg 36%
    14:00 +27°C° 0.1 mm 2 m/S 609 mmHg 42%
    15:00 +26°C° 0.1 mm 2 m/S 608 mmHg 48%
    16:00 +24°C° 0.1 mm 1 m/S 607 mmHg 54%
    17:00 +23°C° 0.1 mm 1 m/S 607 mmHg 61%
    18:00 +21°C° 0.1 mm 1 m/S 607 mmHg 67%
    19:00 +20°C° 0.1 mm 1 m/S 607 mmHg 73%
    20:00 +19°C° 0.4 mm 1 m/S 608 mmHg 77%
    21:00 +19°C° 0.4 mm 1 m/S 608 mmHg 81%
    22:00 +18°C° 0.4 mm 1 m/S 609 mmHg 85%
    23:00 +18°C° 0.3 mm 1 m/S 608 mmHg 86%

    26 Januar, Samstag

    Zeit Temperatur Niederschläge Wind Luftdruck Luftfeuchtigkeit
    00:00 +18°C° 0.3 mm 1 m/S 608 mmHg 87%
    01:00 +16°C° 0.3 mm 1 m/S 608 mmHg 87%
    02:00 +16°C° 0.1 mm 1 m/S 608 mmHg 87%
    03:00 +18°C° 0.1 mm 1 m/S 608 mmHg 87%
    04:00 +18°C° 0.1 mm 1 m/S 608 mmHg 87%
    05:00 +18°C° 0.1 mm 1 m/S 608 mmHg 87%
    06:00 +18°C° 0.1 mm 1 m/S 609 mmHg 86%
    07:00 +18°C° 0.1 mm 1 m/S 609 mmHg 86%
    08:00 +20°C° 0.4 mm 1 m/S 610 mmHg 75%
    09:00 +23°C° 0.4 mm 1 m/S 611 mmHg 65%
    10:00 +25°C° 0.4 mm 1 m/S 612 mmHg 54%
    11:00 +25°C° 1.3 mm 1 m/S 612 mmHg 54%
    12:00 +26°C° 1.3 mm 1 m/S 611 mmHg 54%
    13:00 +26°C° 1.3 mm 1 m/S 611 mmHg 54%
    14:00 +25°C° 1.7 mm 2 m/S 610 mmHg 56%
    15:00 +25°C° 1.7 mm 2 m/S 609 mmHg 58%
    16:00 +24°C° 1.7 mm 2 m/S 609 mmHg 60%
    17:00 +23°C° 0.8 mm 2 m/S 609 mmHg 67%
    18:00 +20°C° 0.8 mm 2 m/S 609 mmHg 73%
    19:00 +19°C° 0.8 mm 2 m/S 608 mmHg 80%
    20:00 +18°C° 0.4 mm 2 m/S 609 mmHg 83%
    21:00 +18°C° 0.4 mm 1 m/S 609 mmHg 86%
    22:00 +18°C° 0.4 mm 1 m/S 609 mmHg 89%
    23:00 +16°C° 0 mm 1 m/S 609 mmHg 90%

    27 Januar, Sonntag

    Zeit Temperatur Niederschläge Wind Luftdruck Luftfeuchtigkeit
    00:00 +16°C° 0 mm 1 m/S 608 mmHg 90%
    01:00 +16°C° 0 mm 1 m/S 608 mmHg 90%
    02:00 +16°C° 0 mm 1 m/S 608 mmHg 90%
    03:00 +16°C° 0 mm 1 m/S 607 mmHg 90%
    04:00 +14°C° 0 mm 0 m/S 607 mmHg 89%
    05:00 +15°C° 0 mm 0 m/S 608 mmHg 85%
    06:00 +16°C° 0 mm 0 m/S 608 mmHg 82%
    07:00 +18°C° 0 mm 1 m/S 609 mmHg 78%
    08:00 +21°C° 0 mm 1 m/S 610 mmHg 67%
    09:00 +24°C° 0 mm 1 m/S 611 mmHg 56%
    10:00 +27°C° 0 mm 2 m/S 612 mmHg 44%
    11:00 +27°C° 0 mm 2 m/S 611 mmHg 45%
    12:00 +27°C° 0 mm 2 m/S 610 mmHg 46%
    13:00 +26°C° 0 mm 2 m/S 609 mmHg 46%
    14:00 +26°C° 0 mm 2 m/S 609 mmHg 49%
    15:00 +25°C° 0 mm 2 m/S 608 mmHg 53%
    16:00 +24°C° 0 mm 2 m/S 607 mmHg 56%
    17:00 +23°C° 0 mm 2 m/S 607 mmHg 61%
    18:00 +21°C° 0 mm 1 m/S 607 mmHg 65%
    19:00 +20°C° 0 mm 1 m/S 607 mmHg 70%
    20:00 +19°C° 0.6 mm 1 m/S 608 mmHg 75%
    21:00 +18°C° 0.6 mm 1 m/S 608 mmHg 80%
    22:00 +16°C° 0.6 mm 1 m/S 608 mmHg 85%
    23:00 +16°C° 0.1 mm 1 m/S 608 mmHg 86%
    Mehr zeigen